#timestamp,LO_Frequency,Hit,StdDev 
1512025215.3,286046998.9,N
1512025235.2,286046999.4,N
1512025255.0,286046998.1,N
1512025255.9,286046998.1,N
1512025275.8,286046999.9,N
1512025295.6,286047000.0,N
1512025315.4,286046998.7,N
1512025335.3,286046998.7,N
1512025355.1,286046997.4,N
1512025375.9,286046997.4,N
1512025395.7,286046998.0,N
1512025415.5,286046998.0,N
1512025435.4,286046997.7,N
1512025455.2,286046996.8,Y
1512025475.0,286046998.2,P
1512025475.9,286046998.2,P
1512025495.8,286046998.1,P
1512025515.6,286047000.6,N
1512025535.5,286046998.4,N
1512025555.3,286047001.2,N
1512025575.1,286046997.0,N
1512025595.9,286046996.5,N
1512025615.7,286047000.6,N
1512025635.5,286047002.0,N
1512025655.4,286047002.6,N
1512025675.2,286046999.7,N
1512025695.1,286047001.2,N
1512025696.0,286047001.2,N
1512025715.8,286046999.1,N
1512025735.6,286046999.1,N
1512025755.5,286047000.3,N
1512025775.3,286047001.1,N
1512025795.1,286046996.8,N
1512025815.9,286046996.9,N
1512025835.7,286046998.1,N
1512025855.6,286046998.4,N
1512025875.4,286046999.4,N
1512025895.2,286046996.8,N
1512025915.1,286046997.2,N
1512025916.0,286046997.2,N
1512025935.8,286046997.8,N
1512025955.7,286046995.1,N
1512025975.5,286046995.3,N
1512025995.3,286046997.4,N
1512026015.2,286046996.7,N
1512026035.0,286046996.9,N
1512026035.9,286046996.9,N
1512026055.8,286046998.2,N
1512026075.6,286046998.9,N
1512026095.4,286046999.1,N
1512026115.3,286046998.5,N
1512026135.1,286046999.3,N
1512026155.8,286046999.5,N
1512026175.7,286046997.2,N
1512026195.5,286046999.3,N
1512026215.4,286046998.9,N
1512026235.2,286046997.0,N
1512026255.0,286046996.5,N
1512026255.9,286046996.5,N
1512026275.8,286046997.2,N
1512026295.6,286046997.4,N
1512026315.4,286046997.2,N
1512026335.3,286046997.0,N
1512026355.1,286046999.0,N
1512026375.9,286046999.1,N
1512026395.7,286046998.6,N
1512026415.5,286046998.1,N
1512026435.4,286046998.4,N
1512026455.2,286046999.5,N
1512026475.0,286046997.3,N
1512026476.0,286046997.3,N
1512026495.8,286046997.2,N
1512026515.6,286046995.4,Y
1512026535.5,286046997.6,P
1512026555.3,286046996.9,P
1512026575.1,286046997.1,P
1512026595.9,286046999.1,N
1512026615.7,286046999.5,N
1512026635.6,286046997.3,N
1512026655.4,286046995.3,Y
1512026675.2,286046998.4,P
1512026695.1,286046998.5,P
1512026696.0,286046998.5,P
1512026715.8,286046999.0,Y
1512026735.7,286047002.5,P
1512026755.5,286047004.4,N
1512026775.3,286047004.3,N
1512026795.2,286047003.5,N
1512026815.0,286047002.3,N
1512026815.9,286047002.3,N
1512026835.7,286047002.1,N
1512026855.6,286047002.2,N
1512026875.4,286047002.7,N
1512026895.3,286047001.5,N
1512026915.1,286046999.7,N
1512026935.8,286047002.4,N
1512026955.7,286047000.2,N
1512026975.5,286047002.7,N
1512026995.4,286047002.8,N
1512027015.2,286047002.0,N
1512027035.0,286047004.0,N
1512027035.9,286047004.0,N
1512027055.8,286047005.8,Y
1512027075.6,286047004.3,P
1512027095.5,286047001.8,N
1512027115.3,286047001.4,N
1512027135.1,286047002.6,N
1512027155.9,286047001.8,N
1512027175.7,286047000.2,N
1512027195.5,286047001.6,N
1512027215.4,286047001.9,N
1512027235.2,286047002.1,N
1512027255.1,286047000.4,N
1512027256.0,286047000.4,N
1512027275.8,286047002.4,N
1512027295.6,286047002.5,N
1512027315.5,286047002.2,N
1512027335.3,286047002.5,N
1512027355.2,286047000.7,N
1512027375.9,286047000.1,N
1512027395.7,286047002.0,N
1512027415.6,286047002.5,N
1512027435.4,286047002.3,N
1512027455.2,286047001.9,N
1512027475.1,286047002.8,N
1512027476.0,286047002.8,N
1512027495.8,286047000.6,N
1512027515.7,286047002.5,N
1512027535.5,286047001.6,N
1512027555.3,286047001.7,N
1512027575.2,286047001.3,N
1512027595.0,286047003.0,Y
1512027595.9,286047003.0,P
1512027615.8,286047004.0,P
1512027635.6,286047001.9,N
1512027655.4,286047004.4,Y
1512027675.3,286046999.9,P
1512027695.1,286047000.5,N
1512027715.8,286046998.6,N
1512027735.7,286046998.5,N
1512027755.5,286046998.4,N
1512027775.4,286046998.3,N
1512027795.2,286046998.1,N
1512027815.0,286046998.6,N
1512027815.9,286046998.6,N
1512027835.8,286046998.7,N
1512027855.6,286046998.8,N
1512027875.4,286046999.6,N
1512027895.3,286046999.6,N
1512027915.1,286046996.6,N
1512027935.9,286046999.2,N
1512027955.7,286046999.2,N
1512027975.5,286046998.8,N
1512027995.4,286046999.0,N
1512028015.2,286046998.2,N
1512028035.0,286046998.9,N
1512028035.9,286046998.9,N
1512028055.8,286046998.4,N
1512028075.6,286047001.2,N
1512028095.5,286047000.2,N
1512028115.3,286047003.7,Y
1512028135.1,286047005.1,P
1512028155.9,286047005.8,N
1512028175.7,286047004.1,N
1512028195.6,286047003.5,N
1512028215.4,286047004.2,N
1512028235.2,286047001.4,N
1512028255.1,286047001.4,N
1512028256.0,286047001.4,N
1512028275.8,286047003.8,N
1512028295.6,286047001.5,N
1512028315.5,286047001.8,N
1512028335.3,286047003.8,N
1512028355.2,286047005.6,Y
1512028375.9,286047000.1,P
1512028425.8,286047001.1,E
1512028435.7,286047000.7,N
1512028455.5,286046998.5,P
1512028475.4,286047001.0,N
1512028495.2,286046999.9,N
1512028515.0,286047002.7,N
1512028515.9,286047002.7,N
1512028535.8,286047000.2,N
1512028555.6,286046998.9,N
1512028575.5,286047001.2,N
1512028595.3,286046998.7,N
1512028615.1,286047000.2,N
1512028635.9,286046998.2,N
1512028655.7,286046998.8,N
1512028675.6,286046998.8,N
1512028695.4,286046998.9,N
1512028715.2,286046998.6,N
1512028735.1,286047000.2,N
1512028736.0,286047000.2,N
1512028755.8,286046999.7,N
1512028775.7,286047002.6,N
1512028795.5,286046998.4,N
